Weather History for Jacksonville Craig, FL

Change the Weather History Date:

Saturday, March 23, 2013

  Actual Average Record
Temperature  
Mean Temperature 63 °F -  
Max Temperature 71 °F 71 °F 87 °F (2011)
Min Temperature 55 °F 52 °F 44 °F (1999)
Degree Days  
Heating Degree Days 2    
Growing Degree Days 13 (Base 50)    
Moisture  
Dew Point 59 °F    
Average Humidity 89    
Maximum Humidity 96    
Minimum Humidity 72    
Precipitation  
Precipitation 2.03 in - - ()
Sea Level Pressure  
Sea Level Pressure 29.88 in    
Wind  
Wind Speed 5 mph (East)    
Max Wind Speed 18 mph    
Max Gust Speed 26 mph    
Visibility 5 miles    
Events Fog , Rain , Thunderstorm    
Averages and records for this station are not official NWS values.
T = Trace of Precipitation, MM = Missing Value Source: NWS Daily Summary

Daily Weather History Graph

Daily Weather History Graph

Search for Another Location

Airport:

Trip Planner

Search our weather history database for the weather conditions in past years. The results will help you decide how hot, cold, wet, or windy it might be!

Date:

Astronomy

Mar. 23, 2013 Rise Set
Actual Time 7:25 AM EDT 7:39 PM EDT
Civil Twilight 7:01 AM EDT 8:03 PM EDT
Nautical Twilight 6:33 AM EDT 8:31 PM EDT
Astronomical Twilight 6:05 AM EDT 8:59 PM EDT
Moon 4:17 PM EDT (3/23) 4:47 AM EDT (3/23)
Length of Visible Light 13h 01m
Length of Day
12h 13m
Waxing Gibbous, 85% of the Moon is Illuminated
Mar 23
Waxing Gibbous
Mar 27
Full
Apr 3
Last Quarter
Apr 10
New
Apr 18
First Quarter

Hourly Weather History & Observations

Time (EDT) Temp. Dew Point Humidity Pressure Visibility Wind Dir Wind Speed Gust Speed Precip Events Conditions
12:53 AM 57.9 °F 48.9 °F 72% 30.01 in 10.0 mi ENE 4.6 mph - N/A   Clear
1:53 AM 57.0 °F 50.0 °F 77% 30.00 in 10.0 mi ENE 3.5 mph - N/A   Clear
2:53 AM 57.0 °F 51.1 °F 81% 29.98 in 10.0 mi NNE 3.5 mph - N/A   Clear
3:53 AM 57.9 °F 53.1 °F 84% 29.95 in 10.0 mi Calm Calm - N/A   Clear
4:53 AM 59.0 °F 54.0 °F 83% 29.94 in 10.0 mi Calm Calm - N/A   Mostly Cloudy
5:53 AM 57.9 °F 54.0 °F 87% 29.93 in 10.0 mi Calm Calm - N/A   Overcast
6:53 AM 59.0 °F 55.0 °F 87% 29.94 in 10.0 mi SE 3.5 mph - N/A   Overcast
7:53 AM 61.0 °F 57.0 °F 87% 29.92 in 10.0 mi SE 6.9 mph - N/A   Mostly Cloudy
8:53 AM 64.0 °F 60.1 °F 87% 29.94 in 10.0 mi SSE 5.8 mph - N/A   Overcast
9:53 AM 68.0 °F 61.0 °F 78% 29.93 in 10.0 mi South 5.8 mph - N/A   Overcast
10:53 AM 71.1 °F 63.0 °F 75% 29.92 in 10.0 mi SSW 8.1 mph - N/A   Overcast
11:07 AM 69.8 °F 62.6 °F 78% 29.93 in 10.0 mi SSW 9.2 mph - 0.00 in Rain Light Rain
11:40 AM 69.8 °F 64.4 °F 83% 29.93 in 10.0 mi SSW 6.9 mph - 0.02 in Rain Light Rain
11:53 AM 68.0 °F 64.0 °F 87% 29.91 in 4.0 mi South 4.6 mph - 0.05 in Rain Rain
12:32 PM 68.0 °F 64.4 °F 88% 29.88 in 7.0 mi South 5.8 mph - 0.02 in Rain , Thunderstorm Light Thunderstorms and Rain
12:53 PM 68.0 °F 64.9 °F 90% 29.89 in 5.0 mi South 6.9 mph - 0.05 in Rain , Thunderstorm Light Thunderstorms and Rain
1:53 PM 68.0 °F 64.9 °F 90% 29.90 in 3.0 mi North 8.1 mph - 0.12 in Rain , Thunderstorm Thunderstorms and Rain
2:00 PM 68.0 °F 64.4 °F 88% 29.88 in 4.0 mi NE 8.1 mph - 0.01 in Rain , Thunderstorm Thunderstorms and Rain
2:48 PM 68.0 °F 64.4 °F 88% 29.87 in 3.0 mi SE 3.5 mph - 0.13 in Rain , Thunderstorm Thunderstorms and Rain
2:53 PM 68.0 °F 64.9 °F 90% 29.86 in 2.5 mi Calm Calm - 0.14 in Rain , Thunderstorm Light Thunderstorms and Rain
3:34 PM 68.0 °F 64.4 °F 88% 29.84 in 2.0 mi South 5.8 mph - 0.09 in Rain , Thunderstorm Heavy Thunderstorms and Rain
3:47 PM 68.0 °F 64.4 °F 88% 29.85 in 3.0 mi SW 5.8 mph - 0.13 in Rain Light Rain
3:53 PM 68.0 °F 64.9 °F 90% 29.84 in 2.5 mi Calm Calm - 0.17 in Rain , Thunderstorm Thunderstorms and Rain
3:57 PM 66.2 °F 64.4 °F 94% 29.84 in 1.5 mi West 3.5 mph - 0.02 in Rain , Thunderstorm Heavy Thunderstorms and Rain
4:08 PM 66.2 °F 64.4 °F 94% 29.82 in 3.0 mi Calm Calm - 0.05 in Rain , Thunderstorm Thunderstorms and Rain
4:19 PM 66.2 °F 64.4 °F 94% 29.84 in 0.8 mi Calm Calm - 0.14 in Rain , Thunderstorm Heavy Thunderstorms and Rain
4:22 PM 66.2 °F 64.4 °F 94% 29.83 in 0.5 mi Calm Calm - 0.16 in Fog , Rain , Thunderstorm Heavy Thunderstorms and Rain
4:26 PM 66.2 °F 64.4 °F 94% 29.83 in 1.0 mi North 3.5 mph - 0.16 in Rain , Thunderstorm Thunderstorms and Rain
4:31 PM 66.2 °F 64.4 °F 94% 29.83 in 3.0 mi NNE 4.6 mph - 0.16 in Rain , Thunderstorm Light Thunderstorms and Rain
4:42 PM 64.4 °F 62.6 °F 94% 29.83 in 4.0 mi NNE 18.4 mph 26.5 mph 0.19 in Rain , Thunderstorm Light Thunderstorms and Rain
4:51 PM 60.8 °F 57.2 °F 88% 29.83 in 3.0 mi NE 17.3 mph 25.3 mph 0.19 in Rain , Thunderstorm Light Thunderstorms and Rain
4:53 PM 60.1 °F 57.0 °F 90% 29.83 in 4.0 mi NE 15.0 mph 25.3 mph 0.20 in Rain , Thunderstorm Light Thunderstorms and Rain
5:23 PM 57.2 °F 55.4 °F 94% 29.82 in 1.8 mi ENE 11.5 mph 23.0 mph 0.09 in Rain , Thunderstorm Heavy Thunderstorms and Rain
5:33 PM 57.2 °F 55.4 °F 94% 29.83 in 3.0 mi NE 9.2 mph 19.6 mph 0.11 in Rain , Thunderstorm Light Thunderstorms and Rain
5:53 PM 57.0 °F 55.0 °F 93% 29.89 in 5.0 mi Variable 6.9 mph 18.4 mph 0.14 in Rain , Thunderstorm Light Thunderstorms and Rain
5:59 PM 57.2 °F 55.4 °F 94% 29.87 in 1.8 mi ENE 12.7 mph 18.4 mph 0.17 in Rain , Thunderstorm Heavy Thunderstorms and Rain
6:17 PM 55.4 °F 53.6 °F 94% 29.86 in 1.2 mi ENE 8.1 mph - 0.53 in Rain , Thunderstorm Heavy Thunderstorms and Rain
6:24 PM 55.4 °F 53.6 °F 94% 29.85 in 2.0 mi SE 8.1 mph - 0.55 in Rain , Thunderstorm Thunderstorms and Rain
6:31 PM 57.2 °F 53.6 °F 88% 29.85 in 5.0 mi ESE 8.1 mph - 0.56 in Rain , Thunderstorm Thunderstorms and Rain
6:53 PM 57.0 °F 55.0 °F 93% 29.88 in 4.0 mi Variable 3.5 mph - 0.61 in Rain , Thunderstorm Thunderstorms and Rain
7:14 PM 57.2 °F 55.4 °F 94% 29.87 in 4.0 mi NNE 3.5 mph - 0.05 in Rain , Thunderstorm Thunderstorms and Rain
7:38 PM 57.2 °F 55.4 °F 94% 29.86 in 5.0 mi ESE 3.5 mph - 0.11 in Rain , Thunderstorm Thunderstorms and Rain
7:53 PM 59.0 °F 57.0 °F 93% 29.86 in 5.0 mi North 6.9 mph - 0.12 in Rain , Thunderstorm Light Thunderstorms and Rain
8:00 PM 59.0 °F 55.4 °F 88% 29.86 in 5.0 mi North 9.2 mph - 0.01 in Rain Light Rain
8:53 PM 59.0 °F 57.0 °F 93% 29.88 in 4.0 mi NNE 4.6 mph - 0.05 in Rain Rain
9:05 PM 59.0 °F 57.2 °F 94% 29.90 in 4.0 mi Calm Calm - 0.04 in Thunderstorm Overcast
9:16 PM 59.0 °F 57.2 °F 94% 29.90 in 2.5 mi Calm Calm - 0.10 in Rain , Thunderstorm Thunderstorms and Rain
9:45 PM 60.8 °F 57.2 °F 88% 29.86 in 4.0 mi East 5.8 mph - 0.23 in Rain Rain
9:53 PM 60.1 °F 57.9 °F 93% 29.86 in 4.0 mi SE 5.8 mph - 0.25 in Rain , Thunderstorm Rain
9:58 PM 60.8 °F 59.0 °F 94% 29.87 in 3.0 mi Calm Calm - 0.02 in Rain Rain
10:06 PM 60.8 °F 57.2 °F 88% 29.85 in 4.0 mi ENE 6.9 mph - 0.04 in Rain Rain
10:53 PM 61.0 °F 59.0 °F 93% 29.86 in 5.0 mi East 4.6 mph - 0.08 in Rain , Thunderstorm Rain
11:53 PM 62.1 °F 61.0 °F 96% 29.81 in 5.0 mi Calm Calm - 0.05 in Rain Rain